Weather History for KICL - November, 2012

Change the Weather History Date:

Sunday, November 11, 2012

  Actual Average Record
Temperature  
Mean Temperature 39 °F -  
Max Temperature 57 °F 50 °F 73 °F (2005)
Min Temperature 21 °F 31 °F 17 °F (1997)
Degree Days  
Heating Degree Days 26    
Moisture  
Dew Point 26 °F    
Average Humidity 77    
Maximum Humidity 94    
Minimum Humidity 55    
Precipitation  
Precipitation 0.86 in - - ()
Sea Level Pressure  
Sea Level Pressure 29.92 in    
Wind  
Wind Speed 11 mph (NW)    
Max Wind Speed 21 mph    
Max Gust Speed 29 mph    
Visibility 9 miles    
Events Rain    
Averages and records for this station are not official NWS values.
T = Trace of Precipitation, MM = Missing Value Source: NWS Daily Summary

Daily Weather History Graph

Daily Weather History Graph

Search for Another Location

Airport or City:

Trip Planner

Search our weather history database for the weather conditions in past years. The results will help you decide how hot, cold, wet, or windy it might be!

Date:

Astronomy

Nov. 11, 2012 Rise Set
Actual Time 7:02 AM CST 5:05 PM CST
Civil Twilight 6:33 AM CST 5:34 PM CST
Nautical Twilight 6:00 AM CST 6:07 PM CST
Astronomical Twilight 5:28 AM CST 6:39 PM CST
Moon 4:17 AM CST (11/11) 3:29 PM CST (11/11)
Length of Visible Light 11h 00m
Length of Day
10h 02m
Waning Crescent, 7% of the Moon is Illuminated
Nov 11
Waning Crescent
Nov 13
New
Nov 20
First Quarter
Nov 28
Full
Dec 6
Last Quarter

Hourly Weather History & Observations

Time (CST) Temp. Windchill Dew Point Humidity Pressure Visibility Wind Dir Wind Speed Gust Speed Precip Events Conditions
12:15 AM 57.2 °F - 53.6 °F 88% 29.69 in 10.0 mi SSW 11.5 mph 19.6 mph 0.03 in Rain Rain
12:35 AM 57.2 °F - 53.6 °F 88% 29.66 in 10.0 mi South 11.5 mph - 0.08 in Rain Rain
12:55 AM 55.4 °F - 53.6 °F 94% 29.68 in 5.0 mi South 12.7 mph 23.0 mph 0.15 in Rain Rain
1:15 AM 55.4 °F - 53.6 °F 94% 29.67 in 10.0 mi South 10.4 mph - 0.10 in Rain Heavy Rain
1:35 AM 55.4 °F - 53.6 °F 94% 29.66 in 10.0 mi South 10.4 mph - 0.19 in Rain Heavy Rain
1:55 AM 55.4 °F - 53.6 °F 94% 29.65 in 10.0 mi South 15.0 mph 23.0 mph 0.27 in Rain Rain
2:15 AM 55.4 °F - 53.6 °F 94% 29.63 in 10.0 mi SSE 9.2 mph 18.4 mph 0.05 in Rain Light Rain
2:35 AM 55.4 °F - 53.6 °F 94% 29.66 in 10.0 mi South 9.2 mph - 0.05 in   Scattered Clouds
2:55 AM 55.4 °F - 53.6 °F 94% 29.66 in 10.0 mi South 10.4 mph - 0.05 in   Overcast
3:15 AM 44.6 °F 39.2 °F 41.0 °F 87% 29.68 in 10.0 mi NW 10.4 mph 20.7 mph 0.02 in Rain Rain
3:35 AM 42.8 °F 37.0 °F 37.4 °F 81% 29.71 in 7.0 mi North 10.4 mph 16.1 mph 0.11 in Rain Heavy Rain
3:55 AM 39.2 °F 30.5 °F 35.6 °F 87% 29.73 in 10.0 mi NW 16.1 mph 23.0 mph 0.17 in Rain Rain
4:15 AM 37.4 °F 28.9 °F 35.6 °F 93% 29.75 in 4.0 mi NW 13.8 mph 25.3 mph 0.07 in Rain Rain
4:35 AM 35.6 °F 26.6 °F 33.8 °F 93% 29.76 in 7.0 mi NNW 13.8 mph 23.0 mph 0.14 in Rain Rain
4:55 AM 35.6 °F 25.5 °F 32.0 °F 87% 29.72 in 5.0 mi NNW 17.3 mph - 0.18 in Rain Light Rain
5:15 AM 35.6 °F 26.2 °F 32.0 °F 87% 29.70 in 10.0 mi North 15.0 mph - N/A   Mostly Cloudy
5:35 AM 35.6 °F 25.9 °F 30.2 °F 81% 29.74 in 10.0 mi NNW 16.1 mph 19.6 mph N/A   Mostly Cloudy
5:55 AM 33.8 °F 24.3 °F 30.2 °F 87% 29.80 in 10.0 mi NW 13.8 mph - N/A Rain Light Rain
6:15 AM 33.8 °F 24.3 °F 30.2 °F 87% 29.81 in 7.0 mi NW 13.8 mph - 0.01 in Rain Light Rain
6:35 AM 33.8 °F 24.8 °F 28.4 °F 81% 29.81 in 7.0 mi NNW 12.7 mph 17.3 mph 0.02 in Rain Light Rain
6:55 AM 32.0 °F 23.0 °F 28.4 °F 87% 29.80 in 7.0 mi North 11.5 mph - 0.03 in Rain Light Rain
7:35 AM 30.2 °F 21.3 °F 28.4 °F 93% 29.80 in 5.0 mi NNW 10.4 mph 24.2 mph 0.01 in   Overcast
7:55 AM 30.2 °F 20.8 °F 28.4 °F 93% 29.82 in 4.0 mi North 11.5 mph - 0.01 in   Overcast
8:15 AM 30.2 °F 20.2 °F 26.6 °F 86% 29.85 in 7.0 mi North 12.7 mph - N/A   Overcast
8:35 AM 30.2 °F 19.3 °F 26.6 °F 86% 29.87 in 10.0 mi NW 15.0 mph 19.6 mph N/A   Overcast
9:35 AM 28.4 °F 17.0 °F 24.8 °F 86% 29.90 in 10.0 mi NW 15.0 mph 18.4 mph N/A   Overcast
9:55 AM 28.4 °F 15.4 °F 24.8 °F 86% 29.89 in 7.0 mi NW 19.6 mph 28.8 mph N/A   Overcast
10:15 AM 28.4 °F 17.5 °F 24.8 °F 86% 29.88 in 7.0 mi NW 13.8 mph 23.0 mph N/A   Overcast
10:35 AM 28.4 °F 17.0 °F 24.8 °F 86% 29.91 in 7.0 mi NW 15.0 mph 21.9 mph N/A   Overcast
10:55 AM 26.6 °F 14.7 °F 23.0 °F 86% 29.93 in 4.0 mi NNW 15.0 mph 24.2 mph N/A   Overcast
11:15 AM 28.4 °F 17.0 °F 23.0 °F 80% 29.92 in 10.0 mi NW 15.0 mph 21.9 mph N/A   Overcast
11:35 AM 28.4 °F 18.5 °F 21.2 °F 74% 29.93 in 10.0 mi NNW 11.5 mph 21.9 mph N/A   Overcast
11:55 AM 28.4 °F 17.5 °F 21.2 °F 74% 29.93 in 10.0 mi NW 13.8 mph 21.9 mph N/A   Overcast
12:15 PM 28.4 °F 19.1 °F 21.2 °F 74% 29.94 in 10.0 mi NW 10.4 mph 20.7 mph N/A   Overcast
12:35 PM 26.6 °F 14.7 °F 21.2 °F 80% 29.93 in 10.0 mi NW 15.0 mph 26.5 mph N/A   Overcast
12:55 PM 28.4 °F 17.0 °F 21.2 °F 74% 29.94 in 10.0 mi NW 15.0 mph 20.7 mph N/A   Overcast
1:15 PM 28.4 °F 17.5 °F 19.4 °F 69% 29.94 in 10.0 mi NW 13.8 mph 24.2 mph N/A   Overcast
1:35 PM 28.4 °F 18.0 °F 19.4 °F 69% 29.95 in 10.0 mi NNW 12.7 mph 20.7 mph N/A   Overcast
1:55 PM 30.2 °F 20.2 °F 21.2 °F 69% 29.94 in 10.0 mi NNW 12.7 mph 16.1 mph N/A   Overcast
2:15 PM 30.2 °F 20.2 °F 21.2 °F 69% 29.94 in 10.0 mi NW 12.7 mph 20.7 mph N/A   Overcast
2:35 PM 32.0 °F 21.2 °F 19.4 °F 60% 29.96 in 10.0 mi NW 16.1 mph 25.3 mph N/A   Mostly Cloudy
2:55 PM 30.2 °F 18.9 °F 19.4 °F 64% 29.96 in 10.0 mi NW 16.1 mph 21.9 mph N/A   Scattered Clouds
3:15 PM 32.0 °F 20.8 °F 19.4 °F 60% 29.98 in 10.0 mi NW 17.3 mph 21.9 mph N/A   Clear
3:35 PM 32.0 °F 20.5 °F 17.6 °F 55% 29.98 in 10.0 mi WNW 18.4 mph 27.6 mph N/A   Clear
3:55 PM 30.2 °F 17.4 °F 15.8 °F 55% 29.99 in 10.0 mi NW 20.7 mph 26.5 mph N/A   Clear
4:15 PM 30.2 °F 17.8 °F 15.8 °F 55% 30.01 in 10.0 mi NW 19.6 mph 23.0 mph N/A   Clear
4:35 PM 30.2 °F 20.2 °F 15.8 °F 55% 30.01 in 10.0 mi NW 12.7 mph 20.7 mph N/A   Clear
4:55 PM 30.2 °F 21.3 °F 15.8 °F 55% 30.03 in 10.0 mi NW 10.4 mph 17.3 mph N/A   Clear
5:15 PM 28.4 °F 19.7 °F 17.6 °F 64% 30.04 in 10.0 mi WNW 9.2 mph - N/A   Clear
5:35 PM 28.4 °F 20.4 °F 15.8 °F 59% 30.05 in 10.0 mi NW 8.1 mph - N/A   Clear
5:55 PM 28.4 °F 21.2 °F 15.8 °F 59% 30.06 in 10.0 mi NW 6.9 mph - N/A   Clear
6:15 PM 28.4 °F 22.2 °F 15.8 °F 59% 30.07 in 10.0 mi NW 5.8 mph - N/A   Clear
6:35 PM 26.6 °F 21.2 °F 15.8 °F 64% 30.09 in 10.0 mi WNW 4.6 mph - N/A   Clear
6:55 PM 26.6 °F 21.2 °F 17.6 °F 69% 30.10 in 10.0 mi West 4.6 mph - N/A   Clear
7:15 PM 26.6 °F 22.6 °F 15.8 °F 64% 30.10 in 10.0 mi WNW 3.5 mph - N/A   Clear
7:35 PM 24.8 °F 17.9 °F 15.8 °F 69% 30.11 in 10.0 mi West 5.8 mph - N/A   Clear
7:55 PM 24.8 °F 19.1 °F 15.8 °F 69% 30.12 in 10.0 mi West 4.6 mph - N/A   Clear
8:15 PM 26.6 °F 19.1 °F 15.8 °F 64% 30.12 in 10.0 mi WNW 6.9 mph - N/A   Clear
8:35 PM 26.6 °F 20.0 °F 15.8 °F 64% 30.13 in 10.0 mi WNW 5.8 mph - N/A   Clear
8:55 PM 24.8 °F 19.1 °F 15.8 °F 69% 30.13 in 10.0 mi West 4.6 mph - N/A   Clear
9:15 PM 24.8 °F - 14.0 °F 64% 30.14 in 10.0 mi Calm Calm - N/A   Clear
9:35 PM 23.0 °F - 14.0 °F 68% 30.15 in 10.0 mi Calm Calm - N/A   Clear
9:55 PM 21.2 °F - 15.8 °F 80% 30.16 in 10.0 mi Calm Calm - N/A   Clear
10:15 PM 21.2 °F - 15.8 °F 80% 30.17 in 10.0 mi Calm Calm - N/A   Clear
10:35 PM 21.2 °F 16.4 °F 15.8 °F 80% 30.17 in 10.0 mi WSW 3.5 mph - N/A   Clear
10:55 PM 21.2 °F 16.4 °F 14.0 °F 74% 30.17 in 10.0 mi WSW 3.5 mph - N/A   Clear
11:15 PM 21.2 °F - 14.0 °F 74% 30.18 in 10.0 mi Calm Calm - N/A   Clear
11:35 PM 21.2 °F - 14.0 °F 74% 30.17 in 10.0 mi Calm Calm - N/A   Clear
11:55 PM 21.2 °F - 14.0 °F 74% 30.17 in 10.0 mi Calm Calm - N/A   Clear